| time (UTC) | temp F | wind direction | speed MPH | gust MPH | rain 1hr in | rain 24hr in | rain mn in | humidity % | barometer mb |
| 20260508005557 | 56 | 350 | 0.0 | 3.0 | 0.00 | 0.00 | 0.00 | 72 | 1008.5 |
| 20260508005039 | 56 | 321 | 0.0 | 3.0 | 0.00 | 0.00 | 0.00 | 71 | 1008.5 |
| 20260508004508 | 56 | 282 | 0.0 | 2.0 | 0.00 | 0.00 | 0.00 | 71 | 1008.5 |
| 20260508004041 | 56 | 357 | 0.0 | 2.0 | 0.00 | 0.00 | 0.00 | 70 | 1008.3 |
| 20260508003511 | 57 | 357 | 0.0 | 3.0 | 0.00 | 0.00 | 0.00 | 70 | 1008.2 |
| 20260508003025 | 57 | 308 | 1.0 | 5.0 | 0.00 | 0.00 | 0.00 | 69 | 1008.0 |
| 20260508002559 | 57 | 296 | 1.0 | 6.0 | 0.00 | 0.00 | 0.00 | 69 | 1008.0 |
| 20260508002502 | 57 | 296 | 1.0 | 6.0 | 0.00 | 0.00 | 0.00 | 69 | 1008.0 |
| 20260508002035 | 57 | 296 | 2.0 | 6.0 | 0.00 | 0.00 | 0.00 | 69 | 1008.0 |
| 20260508001505 | 58 | 283 | 2.0 | 5.0 | 0.00 | 0.00 | 0.00 | 68 | 1007.9 |
| 20260508001035 | 58 | 296 | 1.0 | 5.0 | 0.00 | 0.00 | 0.00 | 67 | 1007.7 |
| 20260508000551 | 58 | 269 | 1.0 | 7.0 | 0.00 | 0.00 | 0.00 | 67 | 1007.8 |
| 20260508000025 | 59 | 314 | 1.0 | 7.0 | 0.00 | 0.00 | 0.00 | 67 | 1007.7 |
| 20260507235559 | 59 | 299 | 3.0 | 7.0 | 0.00 | 0.00 | 0.00 | 66 | 1007.7 |
| 20260507235501 | 59 | 292 | 3.0 | 7.0 | 0.00 | 0.00 | 0.00 | 66 | 1007.7 |
| 20260507235033 | 59 | 326 | 3.0 | 7.0 | 0.00 | 0.00 | 0.00 | 65 | 1007.5 |
| 20260507234547 | 59 | 282 | 2.0 | 7.0 | 0.00 | 0.00 | 0.00 | 65 | 1007.5 |
| 20260507234013 | 59 | 202 | 2.0 | 5.0 | 0.00 | 0.00 | 0.00 | 65 | 1007.4 |
| 20260507233549 | 60 | 312 | 1.0 | 5.0 | 0.00 | 0.01 | 0.00 | 64 | 1007.2 |
| 20260507233023 | 60 | 300 | 1.0 | 6.0 | 0.00 | 0.01 | 0.00 | 64 | 1007.1 |
| 20260507232554 | 60 | 300 | 3.0 | 6.0 | 0.00 | 0.01 | 0.00 | 63 | 1007.2 |
| 20260507232010 | 61 | 329 | 1.0 | 7.0 | 0.00 | 0.01 | 0.00 | 62 | 1007.2 |
| 20260507231543 | 61 | 290 | 2.0 | 12.0 | 0.00 | 0.01 | 0.00 | 61 | 1007.1 |
| 20260507231013 | 62 | 281 | 2.0 | 12.0 | 0.00 | 0.01 | 0.00 | 60 | 1007.1 |
| 20260507230543 | 62 | 297 | 4.0 | 10.0 | 0.00 | 0.01 | 0.00 | 59 | 1007.0 |
| 20260507230021 | 63 | 295 | 4.0 | 10.0 | 0.00 | 0.01 | 0.00 | 59 | 1006.8 |
| 20260507225547 | 63 | 268 | 3.0 | 9.0 | 0.00 | 0.01 | 0.00 | 59 | 1006.8 |
| 20260507225057 | 63 | 281 | 1.0 | 7.0 | 0.00 | 0.01 | 0.00 | 61 | 1006.6 |
| 20260507224528 | 63 | 302 | 4.0 | 10.0 | 0.00 | 0.01 | 0.00 | 58 | 1006.6 |
| 20260507224059 | 63 | 294 | 3.0 | 9.0 | 0.00 | 0.01 | 0.00 | 57 | 1006.5 |
| 20260507224001 | 64 | 311 | 2.0 | 9.0 | 0.00 | 0.01 | 0.00 | 57 | 1006.6 |
| 20260507223538 | 64 | 8 | 1.0 | 14.0 | 0.00 | 0.01 | 0.00 | 57 | 1006.4 |
| 20260507223007 | 65 | 290 | 4.0 | 10.0 | 0.00 | 0.01 | 0.00 | 56 | 1006.5 |
| 20260507222518 | 65 | 322 | 4.0 | 10.0 | 0.00 | 0.01 | 0.00 | 54 | 1006.4 |
| 20260507222052 | 65 | 304 | 2.0 | 8.0 | 0.00 | 0.01 | 0.00 | 54 | 1006.3 |
| 20260507221526 | 65 | 288 | 3.0 | 7.0 | 0.00 | 0.01 | 0.00 | 54 | 1006.3 |
| 20260507221055 | 65 | 316 | 1.0 | 6.0 | 0.00 | 0.01 | 0.00 | 53 | 1006.3 |
| 20260507220530 | 65 | 31 | 0.0 | 13.0 | 0.00 | 0.01 | 0.00 | 56 | 1006.2 |
| 20260507220005 | 65 | 280 | 6.0 | 13.0 | 0.00 | 0.01 | 0.00 | 53 | 1006.2 |
| 20260507215531 | 65 | 299 | 3.0 | 10.0 | 0.00 | 0.01 | 0.00 | 55 | 1006.2 |
| 20260507215009 | 64 | 6 | 5.0 | 12.0 | 0.00 | 0.01 | 0.00 | 53 | 1006.2 |
| 20260507214539 | 64 | 225 | 3.0 | 12.0 | 0.00 | 0.01 | 0.00 | 53 | 1006.2 |
| 20260507214013 | 65 | 273 | 6.0 | 11.0 | 0.00 | 0.01 | 0.00 | 54 | 1006.1 |
| 20260507213548 | 65 | 328 | 3.0 | 10.0 | 0.00 | 0.01 | 0.00 | 55 | 1006.1 |
| 20260507213020 | 65 | 304 | 5.0 | 14.0 | 0.00 | 0.01 | 0.00 | 53 | 1006.2 |
| 20260507212554 | 65 | 288 | 6.0 | 14.0 | 0.00 | 0.01 | 0.00 | 53 | 1006.2 |
| 20260507212023 | 65 | 263 | 5.0 | 10.0 | 0.00 | 0.01 | 0.00 | 55 | 1006.2 |
| 20260507211601 | 66 | 351 | 4.0 | 9.0 | 0.00 | 0.01 | 0.00 | 52 | 1006.1 |
| 20260507211033 | 66 | 279 | 1.0 | 5.0 | 0.00 | 0.01 | 0.00 | 42 | 1006.1 |
| 20260507210558 | 65 | 189 | 1.0 | 5.0 | 0.00 | 0.01 | 0.00 | 42 | 1006.1 |
| 20260507210502 | 65 | 184 | 0.0 | 5.0 | 0.00 | 0.01 | 0.00 | 45 | 1006.1 |
| 20260507210035 | 65 | 173 | 2.0 | 5.0 | 0.00 | 0.01 | 0.00 | 46 | 1006.2 |
| 20260507205551 | 64 | 82 | 0.0 | 0.0 | 0.00 | 0.01 | 0.00 | 46 | 1006.3 |
| 20260507205018 | 64 | 81 | 0.0 | 1.0 | 0.00 | 0.01 | 0.00 | 45 | 1006.2 |
| 20260507204555 | 64 | 105 | 0.0 | 0.0 | 0.00 | 0.01 | 0.00 | 49 | 1006.4 |
| 20260507204019 | 64 | 105 | 0.0 | 2.0 | 0.00 | 0.01 | 0.00 | 45 | 1006.4 |
| 20260507203552 | 64 | 105 | 0.0 | 5.0 | 0.00 | 0.01 | 0.00 | 44 | 1006.3 |
| 20260507203029 | 63 | 96 | 2.0 | 5.0 | 0.00 | 0.01 | 0.00 | 45 | 1006.3 |
| 20260507202540 | 64 | 138 | 0.0 | 5.0 | 0.00 | 0.01 | 0.00 | 46 | 1006.3 |
| 20260507202012 | 64 | 158 | 3.0 | 9.0 | 0.00 | 0.01 | 0.00 | 46 | 1006.4 |
| 20260507201600 | 64 | 223 | 2.0 | 9.0 | 0.00 | 0.01 | 0.00 | 46 | 1006.4 |
| 20260507201021 | 64 | 142 | 2.0 | 7.0 | 0.00 | 0.01 | 0.00 | 46 | 1006.3 |
| 20260507200556 | 64 | 148 | 4.0 | 7.0 | 0.00 | 0.01 | 0.00 | 44 | 1006.4 |
| 20260507200013 | 64 | 144 | 3.0 | 8.0 | 0.00 | 0.01 | 0.00 | 45 | 1006.4 |
| 20260507195544 | 64 | 105 | 2.0 | 8.0 | 0.00 | 0.01 | 0.00 | 50 | 1006.3 |
| 20260507195015 | 64 | 133 | 2.0 | 6.0 | 0.00 | 0.01 | 0.00 | 47 | 1006.5 |
| 20260507194553 | 64 | 105 | 1.0 | 6.0 | 0.00 | 0.01 | 0.00 | 44 | 1006.6 |
| 20260507194024 | 64 | 293 | 0.0 | 4.0 | 0.00 | 0.01 | 0.00 | 47 | 1006.6 |
| 20260507193538 | 64 | 189 | 1.0 | 11.0 | 0.00 | 0.01 | 0.00 | 44 | 1006.6 |
| 20260507193007 | 64 | 163 | 5.0 | 9.0 | 0.00 | 0.01 | 0.00 | 44 | 1006.6 |
| 20260507192540 | 64 | 200 | 2.0 | 9.0 | 0.00 | 0.01 | 0.00 | 45 | 1006.7 |
| 20260507192010 | 64 | 41 | 1.0 | 7.0 | 0.00 | 0.01 | 0.00 | 46 | 1006.8 |
| 20260507191556 | 64 | 6 | 4.0 | 9.0 | 0.00 | 0.01 | 0.00 | 47 | 1006.9 |
| 20260507191059 | 63 | 200 | 3.0 | 9.0 | 0.00 | 0.01 | 0.00 | 45 | 1007.1 |
| 20260507191001 | 63 | 84 | 3.0 | 9.0 | 0.00 | 0.01 | 0.00 | 47 | 1007.1 |
| 20260507190535 | 63 | 313 | 1.0 | 12.0 | 0.00 | 0.01 | 0.00 | 43 | 1007.1 |
| 20260507190008 | 63 | 142 | 8.0 | 14.0 | 0.00 | 0.01 | 0.00 | 47 | 1007.2 |
| 20260507185541 | 63 | 67 | 6.0 | 14.0 | 0.00 | 0.01 | 0.00 | 47 | 1007.2 |
| 20260507185056 | 64 | 233 | 3.0 | 7.0 | 0.00 | 0.01 | 0.00 | 45 | 1007.2 |
| 20260507184526 | 63 | 37 | 3.0 | 12.0 | 0.00 | 0.01 | 0.00 | 46 | 1007.3 |
| 20260507184058 | 63 | 357 | 3.0 | 9.0 | 0.00 | 0.01 | 0.00 | 47 | 1007.4 |
| 20260507184001 | 63 | 296 | 4.0 | 11.0 | 0.00 | 0.01 | 0.00 | 49 | 1007.5 |
| 20260507183534 | 63 | 335 | 3.0 | 11.0 | 0.00 | 0.01 | 0.00 | 46 | 1007.6 |
| 20260507183011 | 63 | 56 | 3.0 | 6.0 | 0.00 | 0.01 | 0.00 | 50 | 1007.6 |
| 20260507182542 | 62 | 158 | 2.0 | 11.0 | 0.00 | 0.01 | 0.00 | 46 | 1007.7 |
| 20260507182055 | 62 | 182 | 5.0 | 11.0 | 0.00 | 0.01 | 0.00 | 48 | 1007.7 |
| 20260507181526 | 62 | 123 | 6.0 | 13.0 | 0.00 | 0.01 | 0.00 | 44 | 1007.8 |
| 20260507181058 | 62 | 19 | 3.0 | 10.0 | 0.00 | 0.01 | 0.00 | 47 | 1007.8 |
| 20260507180535 | 62 | 32 | 5.0 | 13.0 | 0.00 | 0.01 | 0.00 | 46 | 1007.9 |
| 20260507180013 | 62 | 99 | 9.0 | 13.0 | 0.00 | 0.01 | 0.00 | 48 | 1007.8 |
| 20260507175536 | 62 | 44 | 3.0 | 6.0 | 0.00 | 0.01 | 0.00 | 53 | 1007.8 |
| 20260507175004 | 61 | 161 | 0.0 | 13.0 | 0.00 | 0.01 | 0.00 | 47 | 1008.0 |
| 20260507174537 | 61 | 105 | 8.0 | 13.0 | 0.00 | 0.01 | 0.00 | 45 | 1008.1 |
| 20260507174006 | 61 | 159 | 1.0 | 10.0 | 0.00 | 0.01 | 0.00 | 50 | 1008.2 |
| 20260507173538 | 61 | 105 | 4.0 | 10.0 | 0.00 | 0.01 | 0.00 | 46 | 1008.3 |
| 20260507173010 | 61 | 96 | 4.0 | 11.0 | 0.00 | 0.01 | 0.00 | 48 | 1008.4 |
| 20260507172544 | 61 | 22 | 4.0 | 11.0 | 0.00 | 0.01 | 0.00 | 48 | 1008.6 |
| 20260507172018 | 60 | 104 | 4.0 | 11.0 | 0.00 | 0.01 | 0.00 | 50 | 1008.6 |
| 20260507171551 | 60 | 21 | 3.0 | 11.0 | 0.00 | 0.01 | 0.00 | 47 | 1008.7 |
| 20260507171023 | 60 | 38 | 6.0 | 11.0 | 0.00 | 0.01 | 0.00 | 49 | 1008.9 |
| 20260507170554 | 60 | 82 | 2.0 | 8.0 | 0.00 | 0.01 | 0.00 | 49 | 1008.9 |
| 20260507170020 | 60 | 138 | 4.0 | 12.0 | 0.00 | 0.01 | 0.00 | 50 | 1008.9 |
| 20260507165554 | 60 | 138 | 6.0 | 12.0 | 0.00 | 0.01 | 0.00 | 47 | 1009.0 |
| 20260507165033 | 60 | 109 | 3.0 | 12.0 | 0.00 | 0.01 | 0.00 | 46 | 1009.2 |
| 20260507164507 | 60 | 87 | 7.0 | 12.0 | 0.00 | 0.01 | 0.00 | 50 | 1009.3 |
| 20260507164019 | 60 | 102 | 8.0 | 11.0 | 0.00 | 0.01 | 0.00 | 49 | 1009.3 |
| 20260507163552 | 59 | 114 | 5.0 | 15.0 | 0.00 | 0.01 | 0.00 | 51 | 1009.3 |
| 20260507163020 | 59 | 86 | 8.0 | 15.0 | 0.00 | 0.01 | 0.00 | 47 | 1009.4 |
| 20260507162552 | 59 | 152 | 4.0 | 11.0 | 0.00 | 0.01 | 0.00 | 49 | 1009.5 |
| 20260507162023 | 59 | 133 | 4.0 | 18.0 | 0.00 | 0.01 | 0.00 | 52 | 1009.5 |
| 20260507161555 | 59 | 42 | 7.0 | 18.0 | 0.00 | 0.01 | 0.00 | 52 | 1009.5 |
| 20260507161011 | 58 | 121 | 7.0 | 13.0 | 0.00 | 0.01 | 0.00 | 50 | 1009.7 |
| 20260507160542 | 58 | 90 | 5.0 | 11.0 | 0.00 | 0.01 | 0.00 | 51 | 1009.8 |
| 20260507160025 | 58 | 138 | 6.0 | 16.0 | 0.00 | 0.01 | 0.00 | 50 | 1009.8 |
| 20260507155545 | 58 | 86 | 8.0 | 14.0 | 0.00 | 0.01 | 0.00 | 51 | 1009.8 |
| 20260507155017 | 58 | 114 | 9.0 | 14.0 | 0.00 | 0.01 | 0.00 | 51 | 1010.0 |
| 20260507154550 | 58 | 25 | 3.0 | 12.0 | 0.00 | 0.01 | 0.00 | 55 | 1009.9 |
| 20260507154025 | 58 | 142 | 2.0 | 11.0 | 0.00 | 0.01 | 0.00 | 54 | 1010.0 |
| 20260507153553 | 58 | 104 | 5.0 | 11.0 | 0.00 | 0.01 | 0.00 | 56 | 1010.0 |
| 20260507153032 | 57 | 176 | 5.0 | 11.0 | 0.00 | 0.01 | 0.00 | 55 | 1010.0 |
| 20260507152556 | 57 | 202 | 4.0 | 11.0 | 0.00 | 0.01 | 0.00 | 60 | 1010.1 |
| 20260507152014 | 57 | 45 | 4.0 | 11.0 | 0.00 | 0.01 | 0.00 | 53 | 1010.2 |
| 20260507151548 | 57 | 145 | 5.0 | 12.0 | 0.00 | 0.01 | 0.00 | 55 | 1010.2 |
| 20260507151015 | 56 | 79 | 6.0 | 11.0 | 0.00 | 0.01 | 0.00 | 54 | 1010.3 |
| 20260507150550 | 56 | 75 | 5.0 | 16.0 | 0.00 | 0.01 | 0.00 | 57 | 1010.4 |
| 20260507150018 | 56 | 138 | 7.0 | 16.0 | 0.00 | 0.01 | 0.00 | 54 | 1010.5 |
| 20260507145540 | 56 | 48 | 4.0 | 14.0 | 0.00 | 0.01 | 0.00 | 50 | 1010.6 |
| 20260507145014 | 56 | 45 | 7.0 | 13.0 | 0.00 | 0.01 | 0.00 | 53 | 1010.6 |
| 20260507144543 | 55 | 86 | 8.0 | 13.0 | 0.00 | 0.01 | 0.00 | 54 | 1010.6 |
| 20260507144014 | 55 | 58 | 3.0 | 10.0 | 0.00 | 0.01 | 0.00 | 59 | 1010.8 |
| 20260507143549 | 54 | 84 | 4.0 | 8.0 | 0.00 | 0.05 | 0.00 | 58 | 1010.9 |
| 20260507143005 | 54 | 103 | 4.0 | 11.0 | 0.00 | 0.05 | 0.00 | 58 | 1010.6 |
| 20260507142538 | 54 | 81 | 7.0 | 11.0 | 0.00 | 0.05 | 0.00 | 55 | 1010.8 |
| 20260507142009 | 54 | 76 | 4.0 | 9.0 | 0.00 | 0.05 | 0.00 | 57 | 1010.9 |
| 20260507141602 | 54 | 63 | 5.0 | 9.0 | 0.00 | 0.05 | 0.00 | 56 | 1010.9 |
| 20260507141012 | 54 | 61 | 5.0 | 10.0 | 0.00 | 0.05 | 0.00 | 57 | 1011.1 |
| 20260507140545 | 54 | 63 | 4.0 | 10.0 | 0.00 | 0.05 | 0.00 | 56 | 1011.1 |
| 20260507140010 | 54 | 86 | 3.0 | 10.0 | 0.00 | 0.05 | 0.00 | 58 | 1011.2 |
| 20260507135544 | 54 | 69 | 5.0 | 10.0 | 0.00 | 0.05 | 0.00 | 56 | 1011.4 |
| 20260507135011 | 53 | 74 | 5.0 | 8.0 | 0.00 | 0.05 | 0.00 | 56 | 1011.3 |
| 20260507134544 | 53 | 75 | 3.0 | 6.0 | 0.00 | 0.05 | 0.00 | 60 | 1011.4 |
| 20260507134057 | 53 | 94 | 2.0 | 9.0 | 0.00 | 0.05 | 0.00 | 58 | 1011.4 |
| 20260507133533 | 53 | 99 | 5.0 | 11.0 | 0.00 | 0.11 | 0.00 | 58 | 1011.4 |
| 20260507133110 | 53 | 103 | 6.0 | 10.0 | 0.00 | 0.11 | 0.00 | 58 | 1011.4 |
| 20260507133002 | 53 | 69 | 6.0 | 10.0 | 0.00 | 0.11 | 0.00 | 57 | 1011.3 |
| 20260507132535 | 53 | 99 | 6.0 | 10.0 | 0.00 | 0.11 | 0.00 | 61 | 1011.3 |
| 20260507132009 | 53 | 100 | 7.0 | 10.0 | 0.00 | 0.11 | 0.00 | 59 | 1011.4 |
| 20260507131523 | 53 | 113 | 4.0 | 9.0 | 0.00 | 0.11 | 0.00 | 61 | 1011.3 |
| 20260507131054 | 53 | 59 | 3.0 | 8.0 | 0.00 | 0.11 | 0.00 | 62 | 1011.4 |
| 20260507130524 | 53 | 128 | 4.0 | 11.0 | 0.00 | 0.11 | 0.00 | 61 | 1011.4 |
| 20260507130059 | 53 | 62 | 6.0 | 10.0 | 0.00 | 0.11 | 0.00 | 61 | 1011.6 |
| 20260507130001 | 53 | 77 | 5.0 | 10.0 | 0.00 | 0.11 | 0.00 | 61 | 1011.5 |
| 20260507125535 | 53 | 104 | 5.0 | 10.0 | 0.00 | 0.11 | 0.00 | 61 | 1011.6 |
| 20260507125051 | 53 | 133 | 4.0 | 11.0 | 0.00 | 0.11 | 0.00 | 63 | 1011.5 |
| 20260507124521 | 53 | 78 | 4.0 | 11.0 | 0.00 | 0.11 | 0.00 | 62 | 1011.6 |
| 20260507124055 | 53 | 115 | 3.0 | 8.0 | 0.00 | 0.11 | 0.00 | 61 | 1011.5 |
| 20260507123534 | 53 | 117 | 4.0 | 9.0 | 0.00 | 0.17 | 0.00 | 62 | 1011.4 |
| 20260507123103 | 53 | 48 | 2.0 | 9.0 | 0.00 | 0.17 | 0.00 | 63 | 1011.3 |
| 20260507122519 | 53 | 115 | 4.0 | 9.0 | 0.00 | 0.17 | 0.00 | 64 | 1011.2 |
| 20260507122054 | 53 | 71 | 4.0 | 9.0 | 0.00 | 0.17 | 0.00 | 63 | 1011.3 |
| 20260507121521 | 53 | 102 | 3.0 | 8.0 | 0.00 | 0.17 | 0.00 | 63 | 1011.2 |
| 20260507121054 | 53 | 104 | 4.0 | 9.0 | 0.00 | 0.17 | 0.00 | 63 | 1011.2 |
| 20260507120522 | 53 | 79 | 5.0 | 9.0 | 0.00 | 0.17 | 0.00 | 63 | 1011.2 |
| 20260507120055 | 53 | 75 | 1.0 | 4.0 | 0.00 | 0.17 | 0.00 | 66 | 1011.3 |
| 20260507115528 | 53 | 119 | 2.0 | 5.0 | 0.00 | 0.17 | 0.00 | 65 | 1011.3 |
| 20260507115003 | 53 | 84 | 1.0 | 6.0 | 0.00 | 0.17 | 0.00 | 64 | 1011.2 |
| 20260507114536 | 53 | 91 | 1.0 | 6.0 | 0.00 | 0.17 | 0.00 | 63 | 1011.2 |
| 20260507114054 | 53 | 169 | 3.0 | 10.0 | 0.00 | 0.17 | 0.00 | 62 | 1011.1 |
| 20260507113523 | 53 | 133 | 6.0 | 10.0 | 0.00 | 0.20 | 0.17 | 62 | 1011.0 |
| 20260507113055 | 53 | 61 | 1.0 | 9.0 | 0.00 | 0.20 | 0.17 | 63 | 1010.9 |
| 20260507112531 | 53 | 95 | 4.0 | 10.0 | 0.00 | 0.20 | 0.17 | 63 | 1010.8 |
| 20260507112005 | 53 | 94 | 3.0 | 9.0 | 0.00 | 0.20 | 0.17 | 64 | 1010.8 |
| 20260507111539 | 53 | 102 | 3.0 | 9.0 | 0.00 | 0.20 | 0.17 | 64 | 1010.9 |
| 20260507111051 | 53 | 108 | 3.0 | 10.0 | 0.00 | 0.20 | 0.17 | 63 | 1010.8 |
| 20260507110522 | 53 | 89 | 3.0 | 11.0 | 0.00 | 0.20 | 0.17 | 64 | 1010.7 |
| 20260507110055 | 53 | 133 | 4.0 | 11.0 | 0.00 | 0.20 | 0.17 | 64 | 1010.6 |
| 20260507105529 | 53 | 82 | 5.0 | 9.0 | 0.00 | 0.20 | 0.17 | 67 | 1010.8 |
| 20260507105042 | 53 | 110 | 3.0 | 9.0 | 0.00 | 0.20 | 0.17 | 67 | 1010.7 |
| 20260507104517 | 53 | 84 | 4.0 | 8.0 | 0.00 | 0.20 | 0.17 | 68 | 1010.7 |
| 20260507104056 | 53 | 124 | 3.0 | 9.0 | 0.00 | 0.20 | 0.17 | 69 | 1010.6 |
| 20260507103531 | 53 | 67 | 4.0 | 9.0 | 0.00 | 0.20 | 0.17 | 69 | 1010.6 |
| 20260507103056 | 53 | 133 | 4.0 | 9.0 | 0.00 | 0.20 | 0.17 | 70 | 1010.6 |
| 20260507102513 | 53 | 113 | 4.0 | 8.0 | 0.00 | 0.20 | 0.17 | 71 | 1010.6 |
| 20260507102050 | 53 | 104 | 2.0 | 6.0 | 0.00 | 0.20 | 0.17 | 72 | 1010.4 |
| 20260507101517 | 53 | 77 | 2.0 | 6.0 | 0.00 | 0.20 | 0.17 | 73 | 1010.5 |
| 20260507101048 | 54 | 111 | 2.0 | 6.0 | 0.00 | 0.20 | 0.17 | 74 | 1010.2 |
| 20260507100526 | 54 | 92 | 2.0 | 6.0 | 0.00 | 0.20 | 0.17 | 74 | 1010.2 |
| 20260507100059 | 54 | 109 | 2.0 | 6.0 | 0.00 | 0.20 | 0.17 | 73 | 1010.0 |
| 20260507095528 | 54 | 102 | 1.0 | 8.0 | 0.00 | 0.20 | 0.17 | 73 | 1010.2 |
| 20260507095055 | 54 | 99 | 2.0 | 9.0 | 0.00 | 0.20 | 0.17 | 73 | 1010.1 |
| 20260507094523 | 54 | 90 | 3.0 | 5.0 | 0.00 | 0.20 | 0.17 | 72 | 1010.2 |
| 20260507094059 | 54 | 72 | 3.0 | 6.0 | 0.00 | 0.20 | 0.17 | 72 | 1010.1 |
| 20260507093536 | 54 | 61 | 2.0 | 10.0 | 0.00 | 0.20 | 0.17 | 72 | 1010.1 |
| 20260507093045 | 54 | 110 | 6.0 | 10.0 | 0.00 | 0.20 | 0.17 | 72 | 1009.9 |
| 20260507092517 | 54 | 105 | 2.0 | 6.0 | 0.00 | 0.20 | 0.17 | 73 | 1010.1 |
| 20260507092048 | 54 | 88 | 2.0 | 9.0 | 0.00 | 0.20 | 0.17 | 73 | 1009.8 |
| 20260507091533 | 54 | 86 | 2.0 | 9.0 | 0.00 | 0.20 | 0.17 | 72 | 1009.9 |
| 20260507091048 | 54 | 112 | 4.0 | 9.0 | 0.00 | 0.20 | 0.17 | 72 | 1009.5 |
| 20260507090524 | 54 | 116 | 3.0 | 7.0 | 0.00 | 0.20 | 0.17 | 72 | 1009.6 |
| 20260507090059 | 54 | 128 | 2.0 | 8.0 | 0.00 | 0.20 | 0.17 | 72 | 1009.8 |
| 20260507085520 | 54 | 121 | 4.0 | 13.0 | 0.00 | 0.20 | 0.17 | 72 | 1009.8 |
| 20260507085054 | 54 | 104 | 4.0 | 13.0 | 0.00 | 0.20 | 0.17 | 71 | 1009.9 |
| 20260507084514 | 54 | 104 | 4.0 | 10.0 | 0.00 | 0.20 | 0.17 | 71 | 1010.0 |
| 20260507084045 | 54 | 88 | 4.0 | 12.0 | 0.00 | 0.20 | 0.17 | 72 | 1009.7 |
| 20260507083514 | 54 | 69 | 6.0 | 13.0 | 0.00 | 0.20 | 0.17 | 72 | 1009.5 |
| 20260507083045 | 54 | 61 | 7.0 | 13.0 | 0.00 | 0.20 | 0.17 | 72 | 1009.5 |
| 20260507082522 | 54 | 93 | 4.0 | 12.0 | 0.00 | 0.20 | 0.17 | 72 | 1009.5 |
| 20260507082038 | 54 | 108 | 6.0 | 12.0 | 0.00 | 0.20 | 0.17 | 73 | 1009.6 |
| 20260507081508 | 54 | 56 | 3.0 | 7.0 | 0.00 | 0.20 | 0.17 | 73 | 1009.6 |
| 20260507081038 | 54 | 85 | 2.0 | 5.0 | 0.00 | 0.20 | 0.17 | 74 | 1009.6 |
| 20260507080556 | 54 | 95 | 2.0 | 5.0 | 0.00 | 0.20 | 0.17 | 74 | 1009.6 |
| 20260507080012 | 55 | 221 | 2.0 | 9.0 | 0.00 | 0.20 | 0.17 | 74 | 1009.6 |
| 20260507075546 | 54 | 207 | 2.0 | 9.0 | 0.00 | 0.20 | 0.17 | 74 | 1009.3 |
| 20260507075016 | 55 | 181 | 3.0 | 5.0 | 0.00 | 0.20 | 0.17 | 74 | 1009.2 |
| 20260507074551 | 55 | 138 | 1.0 | 5.0 | 0.00 | 0.20 | 0.17 | 75 | 1009.1 |
| 20260507074012 | 55 | 96 | 2.0 | 9.0 | 0.00 | 0.20 | 0.17 | 74 | 1009.0 |
| 20260507073544 | 55 | 153 | 1.0 | 9.0 | 0.00 | 0.20 | 0.17 | 74 | 1009.1 |
| 20260507073010 | 55 | 152 | 1.0 | 9.0 | 0.00 | 0.20 | 0.17 | 73 | 1009.1 |
| 20260507072544 | 55 | 72 | 5.0 | 11.0 | 0.00 | 0.20 | 0.17 | 73 | 1009.1 |
| 20260507072020 | 55 | 138 | 4.0 | 10.0 | 0.00 | 0.20 | 0.17 | 73 | 1009.1 |
| 20260507071552 | 55 | 67 | 4.0 | 10.0 | 0.00 | 0.20 | 0.17 | 74 | 1009.0 |
| 20260507071027 | 55 | 100 | 3.0 | 9.0 | 0.00 | 0.20 | 0.17 | 74 | 1009.0 |
| 20260507070552 | 55 | 80 | 4.0 | 7.0 | 0.00 | 0.20 | 0.17 | 74 | 1009.2 |
| 20260507070023 | 55 | 102 | 2.0 | 10.0 | 0.00 | 0.20 | 0.17 | 74 | 1009.2 |
| 20260507065559 | 55 | 67 | 3.0 | 11.0 | 0.00 | 0.20 | 0.17 | 73 | 1009.1 |
| 20260507065029 | 55 | 84 | 6.0 | 11.0 | 0.00 | 0.20 | 0.17 | 74 | 1009.1 |
| 20260507064634 | 55 | 107 | 6.0 | 15.0 | 0.00 | 0.20 | 0.17 | 74 | 1009.1 |
| 20260507064028 | 55 | 62 | 8.0 | 15.0 | 0.00 | 0.20 | 0.17 | 74 | 1009.1 |
| 20260507063600 | 55 | 98 | 7.0 | 14.0 | 0.00 | 0.20 | 0.17 | 74 | 1009.2 |
| 20260507063502 | 55 | 77 | 6.0 | 14.0 | 0.00 | 0.20 | 0.17 | 75 | 1009.2 |
| 20260507063036 | 55 | 86 | 6.0 | 14.0 | 0.00 | 0.20 | 0.17 | 75 | 1009.4 |
| 20260507062507 | 55 | 71 | 4.0 | 13.0 | 0.00 | 0.20 | 0.17 | 76 | 1009.4 |
| 20260507062018 | 55 | 69 | 7.0 | 13.0 | 0.00 | 0.20 | 0.17 | 76 | 1009.5 |
| 20260507061549 | 55 | 92 | 7.0 | 12.0 | 0.00 | 0.20 | 0.17 | 75 | 1009.5 |
| 20260507061020 | 56 | 71 | 5.0 | 11.0 | 0.00 | 0.20 | 0.17 | 76 | 1009.6 |
| 20260507060550 | 56 | 94 | 6.0 | 11.0 | 0.00 | 0.20 | 0.17 | 76 | 1009.6 |
| 20260507060020 | 56 | 71 | 7.0 | 11.0 | 0.00 | 0.20 | 0.17 | 76 | 1009.5 |
| 20260507055554 | 56 | 74 | 4.0 | 12.0 | 0.00 | 0.20 | 0.17 | 77 | 1009.5 |
| 20260507055028 | 56 | 93 | 5.0 | 11.0 | 0.00 | 0.20 | 0.17 | 77 | 1009.2 |
| 20260507054607 | 56 | 84 | 5.0 | 11.0 | 0.00 | 0.20 | 0.17 | 77 | 1009.4 |
| 20260507054034 | 56 | 104 | 5.0 | 10.0 | 0.00 | 0.20 | 0.17 | 77 | 1009.1 |
| 20260507053506 | 56 | 85 | 3.0 | 11.0 | 0.00 | 0.20 | 0.17 | 77 | 1009.1 |
| 20260507053023 | 56 | 77 | 4.0 | 11.0 | 0.00 | 0.20 | 0.17 | 77 | 1009.3 |
| 20260507052554 | 56 | 116 | 5.0 | 11.0 | 0.00 | 0.20 | 0.17 | 77 | 1009.1 |
| 20260507052032 | 56 | 88 | 4.0 | 13.0 | 0.00 | 0.20 | 0.17 | 77 | 1009.1 |
| 20260507051609 | 56 | 128 | 7.0 | 14.0 | 0.00 | 0.20 | 0.17 | 77 | 1009.2 |
| 20260507051502 | 56 | 124 | 8.0 | 14.0 | 0.00 | 0.20 | 0.17 | 77 | 1009.1 |
| 20260507051019 | 56 | 48 | 6.0 | 14.0 | 0.00 | 0.20 | 0.17 | 77 | 1009.2 |
| 20260507050552 | 56 | 82 | 7.0 | 12.0 | 0.00 | 0.20 | 0.17 | 77 | 1009.2 |
| 20260507050036 | 56 | 77 | 6.0 | 12.0 | 0.00 | 0.20 | 0.17 | 77 | 1009.3 |
| 20260507045032 | 56 | 133 | 3.0 | 12.0 | 0.00 | 0.20 | 0.17 | 77 | 1009.3 |
| 20260507044503 | 56 | 100 | 4.0 | 9.0 | 0.00 | 0.20 | 0.17 | 77 | 1009.3 |
| 20260507044038 | 56 | 113 | 6.0 | 14.0 | 0.00 | 0.20 | 0.17 | 78 | 1009.2 |
| 20260507043508 | 57 | 91 | 4.0 | 14.0 | 0.00 | 0.20 | 0.17 | 79 | 1008.9 |
| 20260507043018 | 57 | 133 | 5.0 | 14.0 | 0.00 | 0.20 | 0.17 | 79 | 1009.3 |
| 20260507042553 | 57 | 102 | 7.0 | 14.0 | 0.00 | 0.20 | 0.17 | 80 | 1009.4 |
| 20260507042021 | 57 | 104 | 5.0 | 10.0 | 0.00 | 0.20 | 0.17 | 80 | 1009.2 |
| 20260507041559 | 57 | 69 | 5.0 | 11.0 | 0.00 | 0.20 | 0.17 | 80 | 1009.2 |
| 20260507041032 | 57 | 63 | 5.0 | 11.0 | 0.00 | 0.20 | 0.17 | 80 | 1009.1 |
| 20260507040600 | 57 | 128 | 2.0 | 10.0 | 0.00 | 0.20 | 0.17 | 80 | 1008.5 |
| 20260507040502 | 57 | 138 | 1.0 | 12.0 | 0.00 | 0.20 | 0.17 | 80 | 1008.5 |
| 20260507040030 | 58 | 128 | 3.0 | 14.0 | 0.00 | 0.20 | 0.17 | 80 | 1008.6 |
| 20260507035551 | 58 | 101 | 8.0 | 16.0 | 0.00 | 0.20 | 0.17 | 79 | 1009.1 |
| 20260507035029 | 58 | 70 | 10.0 | 16.0 | 0.00 | 0.20 | 0.17 | 79 | 1009.4 |
| 20260507034540 | 58 | 73 | 4.0 | 14.0 | 0.00 | 0.20 | 0.17 | 79 | 1009.2 |
| 20260507034009 | 58 | 106 | 7.0 | 14.0 | 0.00 | 0.20 | 0.17 | 79 | 1008.9 |
| 20260507033540 | 59 | 61 | 8.0 | 14.0 | 0.00 | 0.20 | 0.17 | 79 | 1008.7 |
| 20260507033010 | 59 | 89 | 6.0 | 12.0 | 0.00 | 0.20 | 0.17 | 79 | 1008.3 |
| 20260507032545 | 59 | 96 | 5.0 | 10.0 | 0.00 | 0.20 | 0.17 | 79 | 1008.1 |
| 20260507032015 | 60 | 128 | 4.0 | 12.0 | 0.00 | 0.20 | 0.17 | 79 | 1008.1 |
| 20260507031550 | 60 | 83 | 6.0 | 12.0 | 0.00 | 0.20 | 0.17 | 78 | 1008.6 |
| 20260507031022 | 60 | 86 | 6.0 | 11.0 | 0.00 | 0.20 | 0.17 | 77 | 1008.2 |
| 20260507030555 | 60 | 54 | 4.0 | 13.0 | 0.00 | 0.20 | 0.17 | 77 | 1008.6 |
| 20260507030035 | 60 | 73 | 6.0 | 15.0 | 0.00 | 0.20 | 0.17 | 77 | 1008.6 |
| 20260507025545 | 60 | 84 | 6.0 | 15.0 | 0.00 | 0.20 | 0.17 | 79 | 1008.5 |
| 20260507025017 | 60 | 86 | 5.0 | 10.0 | 0.00 | 0.20 | 0.17 | 79 | 1008.4 |
| 20260507024551 | 61 | 90 | 5.0 | 11.0 | 0.00 | 0.20 | 0.17 | 79 | 1008.5 |
| 20260507024024 | 61 | 115 | 6.0 | 12.0 | 0.00 | 0.20 | 0.17 | 80 | 1008.2 |
| 20260507023543 | 61 | 128 | 5.0 | 12.0 | 0.00 | 0.20 | 0.17 | 79 | 1007.9 |
| 20260507023011 | 61 | 146 | 4.0 | 10.0 | 0.00 | 0.20 | 0.17 | 79 | 1007.7 |
| 20260507022543 | 61 | 69 | 4.0 | 9.0 | 0.00 | 0.20 | 0.17 | 79 | 1007.8 |
| 20260507022016 | 62 | 113 | 3.0 | 9.0 | 0.00 | 0.20 | 0.17 | 78 | 1008.1 |
| 20260507021547 | 62 | 91 | 3.0 | 10.0 | 0.00 | 0.20 | 0.17 | 77 | 1008.2 |
| 20260507021003 | 62 | 104 | 5.0 | 15.0 | 0.00 | 0.20 | 0.17 | 76 | 1007.8 |
| 20260507020540 | 62 | 128 | 6.0 | 15.0 | 0.00 | 0.20 | 0.17 | 76 | 1007.8 |
| 20260507020011 | 62 | 86 | 7.0 | 12.0 | 0.00 | 0.20 | 0.17 | 77 | 1007.9 |
| 20260507015547 | 62 | 90 | 6.0 | 12.0 | 0.00 | 0.20 | 0.17 | 76 | 1007.8 |
| 20260507015017 | 62 | 79 | 7.0 | 12.0 | 0.00 | 0.20 | 0.17 | 76 | 1007.8 |
| 20260507014556 | 62 | 97 | 7.0 | 14.0 | 0.00 | 0.20 | 0.17 | 76 | 1007.7 |
| 20260507014017 | 62 | 33 | 8.0 | 14.0 | 0.00 | 0.20 | 0.17 | 75 | 1007.8 |
| 20260507013549 | 62 | 84 | 6.0 | 10.0 | 0.00 | 0.20 | 0.17 | 76 | 1007.7 |
| 20260507013021 | 63 | 72 | 6.0 | 12.0 | 0.00 | 0.20 | 0.17 | 76 | 1007.7 |
| 20260507012553 | 63 | 94 | 6.0 | 12.0 | 0.00 | 0.20 | 0.17 | 76 | 1007.5 |
| 20260507012026 | 63 | 103 | 5.0 | 11.0 | 0.00 | 0.20 | 0.17 | 76 | 1007.7 |
| 20260507011559 | 63 | 64 | 6.0 | 11.0 | 0.00 | 0.20 | 0.17 | 77 | 1007.6 |
| 20260507011501 | 63 | 69 | 5.0 | 11.0 | 0.00 | 0.20 | 0.17 | 77 | 1007.6 |
| 20260507011029 | 63 | 75 | 5.0 | 11.0 | 0.00 | 0.20 | 0.17 | 80 | 1007.8 |
| 20260507010507 | 63 | 59 | 5.0 | 12.0 | 0.00 | 0.20 | 0.17 | 80 | 1007.7 |
| 20260507010057 | 63 | 69 | 7.0 | 13.0 | 0.00 | 0.20 | 0.17 | 80 | 1007.7 |